This demonstration page uses our WeatherBlox Daily Observations layout. Learn more.

Left ArrowRight Arrow

34.74481, -87.66753

Hourly Observations for January 10, 2020

Temp ( °F °C ) Dew Point ( °F °C ) Humidity (%) Winds ( mph kmh ) Pressure ( in mb ) Visibility ( mi km ) Precip ( " mm )
12:53 am 00:53 Mostly Cloudy 60 15.6 46 7.8 60 60 SSE 9 15 30.26 1025 10 16 0.00 0.00
1:53 am 01:53 Mostly Cloudy 60 15.6 47 8.3 62 62 SSE 14 22 30.25 1024 10 16 0.00 0.00
2:53 am 02:53 Mostly Cloudy 61 16.1 48 8.9 63 63 SSE 6 9 30.24 1024 10 16 0.00 0.00
3:53 am 03:53 Cloudy 61 16.1 48 8.9 63 63 SSE 10 17 30.24 1024 10 16 0.00 0.00
4:53 am 04:53 Cloudy 62 16.7 49 9.4 62 62 SSE 14 22 30.24 1024 10 16 0.00 0.00
5:53 am 05:53 Cloudy 63 17.2 51 10.6 65 65 SSE 14 22 30.24 1024 10 16 0.00 0.00
6:53 am 06:53 Cloudy 63 17.2 52 11.1 68 68 S 16 26 30.24 1024 10 16 0.00 0.00
7:53 am 07:53 Cloudy 63 17.2 53 11.7 70 70 S 16 26 30.26 1025 10 16 0.00 0.00
8:53 am 08:53 Cloudy 63 17.2 53 11.7 70 70 S 13 20 30.27 1025 10 16 0.00 0.00
9:53 am 09:53 Cloudy 64 17.8 54 12.2 70 70 SSE 14 22 30.27 1025 10 16 0.00 0.00
10:53 am 10:53 Mostly Cloudy 65 18.3 54 12.2 68 68 SSE 15 24 30.24 1024 10 16 0.00 0.00
11:53 am 11:53 undefined 66 18.9 55 12.8 68 68 SSE 10 17 30.21 1023 10 16 0.00 0.00
12:53 pm 12:53 Cloudy 67 19.4 55 12.8 66 66 SSE 13 20 30.17 1022 10 16 0.00 0.00
1:53 pm 13:53 Cloudy 68 20 55 12.8 63 63 SE 8 13 30.13 1020 10 16 0.00 0.00
2:53 pm 14:53 Cloudy 67 19.4 55 12.8 66 66 SSE 13 20 30.14 1021 10 16 0.00 0.00
3:53 pm 15:53 Cloudy with Light Rain 64 17.8 57 13.9 78 78 SE 6 9 30.14 1021 10 16 0.01 0.25
4:53 pm 16:53 Cloudy with Rain 61 16.1 58 14.4 90 90 SE 6 9 30.14 1021 6 10 0.15 3.81
5:53 pm 17:53 Cloudy with Light Rain 62 16.7 58 14.4 86 86 SE 7 11 30.13 1020 10 16 0.15 3.81
6:53 pm 18:53 Cloudy with Rain 61 16.1 58 14.4 90 90 E 6 9 30.09 1019 6 10 0.10 2.54
7:53 pm 19:53 Cloudy 61 16.1 57 13.9 87 87 ESE 9 15 30.07 1018 10 16 0.01 0.25
8:53 pm 20:53 Cloudy 63 17.2 57 13.9 81 81 SE 10 17 30.05 1018 10 16 0.00 0.00
9:53 pm 21:53 Cloudy with Light Rain 65 18.3 58 14.4 78 78 SSE 10 17 30.04 1017 10 16 0.01 0.25
10:00 pm 22:00 Cloudy with Light Rain 65 18.3 58 14.4 78 78 SSE 9 15 30.04 1017 10 16 0.01 0.25
10:53 pm 22:53 Cloudy with Heavy Rain 65 18.3 59 15 81 81 SSE 15 24 30.00 1016 4 6 0.03 0.76
11:50 pm 23:50 Cloudy 64 18 61 16 88 88 SSE 15 24 29.98 1015 10 16 0.03 0.76
11:53 pm 23:53 Cloudy 64 17.8 60 15.6 87 87 SSE 15 24 29.97 1015 10 16 0.03 0.76

Powered by AerisWeather